Regional Weather Roundup
Issued by NWS Glasgow, MT

Home | Current Version | Previous Version | Text Only | Print | Product List | Glossary On
Versions: 1 2 3 4 5 6 7 8 9 10 11 12 13 14 15 16 17 18 19 20 21 22 23 24 25 26 27 28 29 30 31 32 33 34 35 36 37 38 39 40 41 42 43 44 45 46 47 48 49 50
817
ASUS45 KGGW 181115
RWRGGW
HOURLY REGIONAL WEATHER ROUNDUP FOR NORTHEAST MONTANA
NATIONAL WEATHER SERVICE GLASGOW MONTANA
400 AM MST SAT NOV 18 2017

NOTE: "FAIR" INDICATES FEW OR NO CLOUDS BELOW 12,000 FEET WITH NO
SIGNIFICANT WEATHER AND/OR OBSTRUCTIONS TO VISISBILITY.

NORTHEAST MONTANA


CITY           SKY/WX    TMP DP  RH WIND       PRES   REMARKS
GLASGOW        CLOUDY    11   8  88 NW10      30.06F WCI  -3
PLENTYWOOD       N/A      9   7  92 W6          N/A
WOLF POINT     CLEAR     10   4  76 W7        30.10R
JORDAN           N/A     18  14  84 CALM      30.06R
WINNETT          N/A     29  18  63 SW9         N/A
SIDNEY         PTCLDY    12   7  80 NW3       30.08R
GLENDIVE       CLEAR     13   9  84 N13       30.06R WCI  -2
MALTA            N/A     11  10  96 SE1         N/A

FORT PECK REPORTS


CITY           SKY/WX    TMP DP  RH WIND       PRES   REMARKS
FORT PECK        N/A     14  10  84 W7          N/A
THE PINES        N/A     14  11  87 SW3         N/A

SOUTHEAST MONTANA


CITY           SKY/WX    TMP DP  RH WIND       PRES   REMARKS
BILLINGS       CLEAR     34  16  47 W21       30.11R
MILES CITY     CLEAR     26  22  84 NW7       30.06R
BAKER          CLEAR     21  21 100 NW3       30.02R
LIVINGSTON     CLOUDY    30  13  49 W20G29    30.16R

CENTRAL MONTANA


CITY           SKY/WX    TMP DP  RH WIND       PRES   REMARKS
HAVRE          PTCLDY    12   7  80 CALM      30.06R
LEWISTOWN      CLEAR     28  17  63 SW17      30.04S
GREAT FALLS    CLOUDY    34  19  54 SW15G28   30.05R
CUT BANK       MOCLDY    32  21  64 W38G45    29.97F
HELENA         CLOUDY    35  17  47 SW6       30.19R
BUTTE          CLOUDY    19  11  70 N3        30.20S
BOZEMAN        CLOUDY    21  11  65 SE3       30.22S

WESTERN MONTANA


CITY           SKY/WX    TMP DP  RH WIND       PRES   REMARKS
MISSOULA       CLOUDY    35  24  64 N6        30.26R
KALISPELL      NOT AVBL

NORTH DAKOTA


CITY           SKY/WX    TMP DP  RH WIND       PRES   REMARKS
WILLISTON      MOCLDY    14   9  80 W12       30.06R
DICKINSON      PTCLDY    14   9  80 NW10      29.98R
MINOT          CLOUDY    16   9  74 W15       29.97R
BISMARCK       MOCLDY    23  18  81 NW8       29.98R

SOUTHERN SASKATCHEWAN


CITY           SKY/WX    TMP DP  RH WIND       PRES   REMARKS
REGINA         PTCLDY     1  -4  78 W12       30.01R WCI -15
ESTEVAN        FLURRIES  12   7  79 NW15G26   30.01R WCI  -4
SWIFT CURRENT  PTCLDY     7   1  78 W15       29.97F WCI -11





USA.gov is the U.S. government's official web portal to all federal, state and local government web resources and services.